[Date Prev][Date Next][Thread Prev][Thread Next] - [Date Index][Thread Index][Author Index]
2 Line ISS Keps 8-5
- Subject: [sarex] 2 Line ISS Keps 8-5
- From: "Dave Larsen PhD" <doc@xxxxxxxxxxx>
- Date: Thu, 5 Aug 2004 04:49:53 -0700
ISS
1 25544U 98067A 04218.24774306 .00015760 00000-0 12984-3 0 3796
2 25544 51.6326 75.3639 0006107 86.9672 66.5660 15.70553707326022
----
Via the sarex mailing list at AMSAT.ORG courtesy of AMSAT-NA.
To unsubscribe, send "unsubscribe sarex" to Majordomo@amsat.org
AMSAT Home